sat.trackr.live / text

‹ back to catalog

STARLINK-5935

NORAD 56453 · 2023-064F

PAYLOAD ACTIVE UNKNOWN

§ Identity

Operator
Country
US
Launch date
2023-05-10
Launch site
AFWTR
Launch vehicle
Mass (kg)
RCS (m²)

Purposes: comms

External: N2YO · Heavens-Above · Gunter

§ Orbital elements

Epoch: 2026-09-20T13:34:46.939584Z

Period
96.11 min
Inclination
70.0007°
Eccentricity
0.0003045
Mean motion
14.98324325 rev/d
Perigee alt
570.0 km
Apogee alt
574.2 km
Semi-major
6,950.2 km
B*
1.2703e-4
RAAN
13.2259°
Arg perigee
272.0761°
Mean anomaly
88.0049°
Rev number
18,443

§ Raw data

STARLINK-59351 56453U 23064F   26263.56582106  .00001423  00000+0  12703-3 0  99952 56453  70.0007  13.2259 0003045 272.0761  88.0049 14.98324325184438

JSON: /api/v1/satellites/56453 · /tle

For live sub-satellite position, see the globe view (requires WebGL).

§ Visibility from observer

Set your observer location to see the next 7 days of passes ≥ 10°. The values pass through the URL so the page stays shareable.

No JS? Fill the form by hand. The geolocation button needs JavaScript.